Regional Weather Roundup
Issued by NWS

Home | Current Version | Previous Version | Graphics & Text | Print | Product List | Glossary On
Versions: 1 2 3 4 5 6 7 8 9 10 11 12 13 14 15 16 17 18 19 20 21 22 23 24 25 26 27 28 29 30 31 32 33 34 35 36 37 38 39 40 41 42 43 44 45 46 47
000
ASUS45 KBOI 260910
RWRID
WEATHER ROUNDUP FOR IDAHO
NATIONAL WEATHER SERVICE BOISE ID
200 AM MST FRI DEC 26 2014

NOTE: "FAIR" INDICATES FEW OR NO CLOUDS BELOW 12000 FEET
WITH NO SIGNIFICANT WEATHER AND/OR OBSTRUCTIONS TO VISIBILITY

IDZ012-014-261000-
SOUTHWEST IDAHO


CITY           SKY/WX    TMP DP  RH WIND       PRES   REMARKS
BOISE          PTCLDY    26  21  81 NW9       30.07R WCI  17
CALDWELL       CLOUDY    30  19  64 SW8       30.12S WCI  23
MOUNTAIN HOME  CLEAR     27  22  82 NW21      30.03R WCI  13
$$

IDZ016-017-261000-
SOUTHCENTRAL IDAHO


CITY           SKY/WX    TMP DP  RH WIND       PRES   REMARKS
BURLEY         CLEAR     23  17  78 W14G22    29.95R WCI  11
JEROME         PTCLDY    20  17  88 S7        29.96S WCI  11
TWIN FALLS     PTCLDY    23  17  78 SW9       29.97R WCI  13
$$

IDZ019>023-261000-
SOUTHEAST IDAHO


CITY           SKY/WX    TMP DP  RH WIND       PRES   REMARKS
IDAHO FALLS    PTCLDY    10   6  84 CALM      29.92R
POCATELLO      CLEAR      8   5  87 N6        29.94R WCI  -2
REXBURG        PTCLDY     5   3  91 CALM      29.91R
$$

IDZ006-010-011-018-031-032-261000-
CENTRAL IDAHO MOUNTAINS


CITY           SKY/WX    TMP DP  RH WIND       PRES   REMARKS
MCCALL         CLOUDY    23  18  81 N3        30.00F
HAILEY         CLEAR     16   5  62 NW8       29.93R WCI   5
STANLEY          N/A      9   4  80 CALM      29.96R
SALMON         CLOUDY    23  18  80 SE3       30.02S
CHALLIS        CLOUDY    23   8  52 N6        29.99R WCI  16
$$

IDZ002-004-006-007-026-261000-
NORTHERN IDAHO


CITY           SKY/WX    TMP DP  RH WIND       PRES   REMARKS
LEWISTON       CLOUDY    34  29  82 CALM      30.15S
LOWELL           N/A     34  32  92 CALM      30.17F
COEUR D`ALENE  MOCLDY    28  25  86 S3        30.09S
MULLAN PASS    CLOUDY    21  16  81 NW9G18    29.91F HAZE    WCI  11
$$


USA.gov is the U.S. government's official web portal to all federal, state and local government web resources and services.